RH
46 52 55 55 55 55 53 51 51 49 46 43 41 38 38 39 38 39 35 35 34 32 28 26 26 28 29 32 35 36 35 35 33 33 35 46 50 56 71 83 85 84 78
53 59 61 59 58 58 56 54 53 53 51 49 45 40 41 43 48 48 45 40 35 32 31 28 25 24 25 27 29 32 35 37 37 36 37 37 43 63 60 75 84 83 82
61 67 64 61 58 54 55 53 51 51 52 51 49 46 48 45 50 43 39 35 38 33 31 29 29 30 29 25 25 27 29 33 37 40 39 39 42 57 67 62 77 84 82
71 70 64 59 58 57 55 56 49 46 48 49 48 46 49 47 44 43 38 32 34 33 39 40 40 40 35 35 30 26 26 28 32 37 41 42 43 49 62 57 61 77 93
75 72 67 63 58 59 53 50 46 43 44 41 41 40 41 43 43 40 37 41 40 38 41 40 43 45 45 42 41 38 31 27 29 31 36 40 43 45 52 60 64 69 75
66 63 62 63 61 55 52 50 46 43 42 40 37 34 32 32 34 38 37 35 37 35 33 37 39 37 44 48 48 46 45 39 30 29 31 34 38 41 44 52 58 70 84
64 66 61 56 52 51 51 48 45 45 43 40 35 32 30 30 32 35 35 36 43 45 46 42 41 41 38 41 49 55 53 47 42 36 31 32 34 39 42 43 49 62 78
60 54 54 53 51 50 49 49 49 46 45 46 43 38 34 32 36 39 41 41 42 43 48 57 56 50 47 39 33 47 57 61 55 49 42 33 32 34 37 42 44 46 60
52 49 48 48 47 48 49 51 54 55 53 50 47 49 46 46 43 40 40 43 45 45 48 49 53 57 52 47 46 40 48 61 64 62 56 44 36 33 35 35 40 44 45
44 44 48 49 50 51 51 53 53 51 49 47 50 52 56 55 49 50 49 45 40 36 37 41 45 50 53 53 53 52 44 50 72 71 69 60 50 40 34 36 37 39 44
55 51 52 56 60 58 50 43 48 48 50 51 48 47 45 51 51 51 49 39 40 40 35 34 33 34 44 53 58 61 61 53 77 76 74 72 69 55 44 36 38 39 39
54 54 64 60 57 52 43 43 41 41 43 44 46 46 45 48 49 51 50 35 41 34 32 34 37 34 33 40 50 65 62 63 79 86 85 75 72 66 61 50 41 45 47
72 55 57 55 52 42 32 32 35 36 39 42 47 48 50 54 60 56 58 55 51 41 39 39 44 43 41 45 43 50 57 59 60 98 89 91 85 76 71 63 52 48 52
69 52 49 44 42 41 34 32 29 31 34 38 41 44 47 52 62 66 71 76 69 63 54 50 53 57 50 53 55 55 60 64 63 68 84 94 95 89 79 73 68 58 52
47 54 57 48 43 33 33 36 41 37 33 35 34 33 37 46 58 71 80 86 94 86 70 69 74 80 72 67 69 69 70 70 72 74 92 98 97 96 95 89 78 70 66
59 67 73 54 45 50 53 55 51 32 34 36 35 33 35 38 41 47 53 69 86 97 93 76 84 85 84 80 79 71 71 72 73 76 82 95 94 91 91 93 93 84 80
77 73 70 70 74 67 55 52 48 34 38 40 42 45 46 44 41 37 36 37 51 71 92 86 88 87 88 84 82 83 81 84 82 87 79 82 89 93 92 90 83 84 81
68 77 86 82 74 61 52 49 44 43 40 40 41 44 45 44 39 39 37 32 26 38 53 76 85 86 86 89 87 81 79 82 89 98 93 82 86 86 86 86 80 75 74
76 89 73 76 65 59 54 50 42 41 43 48 50 51 51 50 46 44 45 45 40 34 46 49 56 85 81 81 87 85 80 80 82 91 97 98 88 84 90 86 75 71 67
72 68 80 75 67 58 50 48 46 44 47 51 54 59 61 62 61 61 61 60 57 51 49 48 43 53 65 66 65 76 83 84 85 86 90 94 86 85 83 78 71 66 61
59 72 81 74 62 52 51 52 48 48 51 51 54 67 71 70 72 79 82 82 81 77 70 64 52 48 46 41 44 47 62 74 83 83 90 91 87 83 85 78 70 69 65
64 80 87 73 52 49 53 49 49 49 46 53 67 72 75 76 77 85 87 93 93 89 87 81 74 62 54 48 40 38 42 53 65 71 80 91 88 87 81 81 76 75 75
76 88 75 63 50 53 49 49 47 46 48 65 74 80 79 84 86 85 92 93 93 92 91 89 77 70 61 51 46 39 38 42 49 58 63 73 87 88 87 83 77 75 73
86 75 69 57 51 49 47 48 48 43 56 71 83 85 88 90 92 92 92 89 96 95 89 80 75 70 61 50 44 40 38 42 45 50 58 59 68 77 81 78 71 66 67
73 77 64 54 49 46 47 47 42 39 59 82 88 91 95 96 97 99 98 87 91 94 94 84 78 69 57 50 48 47 42 47 47 45 52 56 55 54 60 63 61 61 62
81 74 60 48 48 49 47 44 38 39 65 80 89 93 96 98 98 98 99 93 89 92 90 82 74 64 57 53 52 49 48 52 52 50 49 57 49 52 49 45 46 49 49